Location: Unspecified
(29.9680°N, 0.0000°E)
Time: 19:11:17
(UTC+00:00)

Tiros 1 despin weight - Visible Passes

Search period start: 07 August 2020 00:00
Search period end: 17 August 2020 00:00
Orbit: 594 x 642 km, 48.2° (Epoch: 07 August)

Date Brightness Start Highest point End Pass type
(mag) Time Alt. Az. Time Alt. Az. Time Alt. Az.
09 Aug ? 04:41:22 10° SSE 04:43:47 14° SE 04:46:13 10° E visible
10 Aug ? 04:55:57 10° SSW 05:00:02 32° SE 05:04:03 10° ENE visible
12 Aug ? 03:49:02 13° S 03:51:35 20° SE 03:54:56 10° E visible
13 Aug ? 04:05:14 22° SSW 04:07:52 46° SE 04:12:12 10° ENE visible
14 Aug ? 02:44:16 12° ESE 02:44:16 12° ESE 02:45:07 10° ESE visible
14 Aug ? 04:21:20 22° SW 04:24:16 80° NW 04:28:49 10° NE visible
15 Aug ? 03:00:17 26° ESE 03:00:17 26° ESE 03:03:19 10° ENE visible
15 Aug ? 04:37:21 15° W 04:40:49 39° NW 04:45:04 10° NE visible
16 Aug ? 03:16:15 59° E 03:16:15 59° E 03:20:14 10° NE visible
16 Aug ? 04:53:59 10° W 04:57:32 22° NNW 05:01:04 10° NNE visible
